KB6OQJ Weather Reports


Display with metric or nautical units.
time (UTC)temp
F
wind
direction
speed
MPH
gust
MPH
rain 1hr
in
rain 24hr
in
rain mn
in
humidity
%
barometer
mb
20260906133004 55 320 0.0 0.0 0.00 0.00 0.00 63 891.3
20260906131004 55 320 0.0 0.0 0.00 0.00 0.00 64 891.3
20260906125004 55 320 0.0 0.0 0.00 0.00 0.00 65 891.3
20260906123004 55 320 0.0 0.0 0.00 0.00 0.00 65 891.3
20260906122004 55 320 0.0 0.0 0.00 0.00 0.00 66 891.3
20260906121004 55 320 0.0 0.0 0.00 0.00 0.00 66 891.3
20260906113004 55 320 0.0 0.0 0.00 0.00 0.00 68 891.3
20260906112004 55 320 0.0 0.0 0.00 0.00 0.00 68 891.3
20260906111004 55 320 0.0 0.0 0.00 0.00 0.00 69 891.3
20260906110004 55 320 0.0 0.0 0.00 0.00 0.00 69 891.3
20260906104003 56 320 0.0 0.0 0.00 0.00 0.00 70 891.3
20260906103003 56 320 0.0 0.0 0.00 0.00 0.00 71 891.3
20260906102005 56 320 0.0 0.0 0.00 0.00 0.00 71 891.3
20260906101004 56 320 0.0 0.0 0.00 0.00 0.00 71 891.3
20260906100004 56 320 0.0 0.0 0.00 0.00 0.00 72 891.3
20260906095004 56 320 0.0 0.0 0.00 0.00 0.00 72 891.3
20260906094004 56 320 0.0 0.0 0.00 0.00 0.00 73 891.3
20260906093004 56 320 0.0 0.0 0.00 0.00 0.00 73 891.3
20260906092004 57 320 0.0 0.0 0.00 0.00 0.00 73 891.3
20260906090004 57 320 0.0 0.0 0.00 0.00 0.00 73 891.3
20260906085004 58 320 0.0 0.0 0.00 0.00 0.00 73 891.3
20260906084004 58 320 0.0 0.0 0.00 0.00 0.00 74 891.3
20260906083004 58 320 0.0 0.0 0.00 0.00 0.00 74 891.3
20260906082004 59 320 0.0 0.0 0.00 0.00 0.00 74 891.3
20260906080004 59 320 0.0 0.0 0.00 0.00 0.00 75 891.3
20260906075004 59 320 0.0 0.0 0.00 0.00 0.00 75 891.3
20260906074004 60 320 0.0 0.0 0.00 0.00 0.00 75 891.3
20260906073004 60 320 0.0 0.0 0.00 0.00 0.00 75 891.3
20260906072004 60 320 0.0 0.0 0.00 0.00 0.00 75 891.3
20260906071004 60 320 0.0 0.0 0.00 0.00 0.00 75 891.3
20260906065004 61 320 0.0 0.0 0.00 0.00 0.00 75 891.3
20260906064004 62 320 0.0 0.0 0.00 0.00 0.00 75 891.3
20260906062004 62 320 0.0 0.0 0.00 0.00 0.00 75 891.3
20260906061004 63 320 0.0 0.0 0.00 0.00 0.00 75 891.3
20260906060004 63 320 0.0 0.0 0.00 0.00 0.00 75 891.3
20260906055004 63 320 0.0 0.0 0.00 0.00 0.00 75 891.3
20260906054003 64 320 0.0 0.0 0.00 0.00 0.00 75 891.3
20260906053004 64 320 0.0 0.0 0.00 0.00 0.00 75 891.3
20260906052003 65 320 0.0 0.0 0.00 0.00 0.00 75 891.3
20260906051004 65 320 0.0 0.0 0.00 0.00 0.00 74 891.3
20260906050004 65 309 0.0 0.0 0.00 0.00 0.00 73 891.3
20260906045004 66 284 0.0 0.0 0.00 0.00 0.00 72 891.3
20260906043004 67 275 0.0 0.0 0.00 0.00 0.00 71 905.8
20260906042004 67 275 0.0 0.0 0.00 0.00 0.00 70 915.3
20260906040004 68 287 0.0 0.0 0.00 0.00 0.00 69 913.7
20260906035004 69 288 0.0 0.0 0.00 0.00 0.00 68 913.7
20260906033004 70 269 0.0 0.0 0.00 0.00 0.00 65 932.5
20260906030003 72 308 0.0 0.0 0.00 0.00 0.00 61 932.5
20260906025004 73 291 0.0 0.0 0.00 0.00 0.00 60 932.5
20260906024003 74 311 0.0 1.0 0.00 0.00 0.00 58 932.9
20260906023003 75 318 2.0 9.0 0.00 0.00 0.00 56 932.9
20260906022004 76 294 0.0 7.0 0.00 0.00 0.00 55 932.9
20260906021004 77 302 3.0 12.0 0.00 0.00 0.00 53 932.9
20260906020004 78 306 0.0 10.0 0.00 0.00 0.00 51 899.8
20260906015004 78 294 3.0 7.0 0.00 0.00 0.00 50 899.8
20260906014003 79 306 2.0 9.0 0.00 0.00 0.00 48 899.8
20260906013004 80 292 1.0 7.0 0.00 0.00 0.00 47 899.8
20260906012003 81 273 1.0 10.0 0.00 0.00 0.00 46 871.4
20260906011003 81 296 1.0 9.0 0.00 0.00 0.00 44 868.9
20260906010004 82 333 0.0 12.0 0.00 0.00 0.00 43 855.6
20260906005003 83 302 4.0 10.0 0.00 0.00 0.00 41 855.6
20260906004004 84 303 3.0 9.0 0.00 0.00 0.00 39 855.6
20260906003004 85 286 1.0 12.0 0.00 0.00 0.00 37 855.6
20260906001003 87 306 2.0 12.0 0.00 0.00 0.00 35 855.6
20260905235004 88 287 4.0 12.0 0.00 0.00 0.00 32 855.6
20260905233003 88 323 3.0 14.0 0.00 0.00 0.00 31 855.6
20260905204004 89 213 13.0 20.0 0.00 0.00 0.00 35 923.8
20260905203004 88 205 13.0 17.0 0.00 0.00 0.00 37 923.8
20260905201004 87 206 11.0 20.0 0.00 0.00 0.00 37 923.8
20260905200004 87 216 13.0 20.0 0.00 0.00 0.00 38 923.8
20260905195004 87 212 10.0 20.0 0.00 0.00 0.00 40 923.8
20260905194004 86 228 10.0 17.0 0.00 0.00 0.00 38 923.8
20260905193004 85 227 7.0 15.0 0.00 0.00 0.00 39 923.8
20260905192005 85 227 9.0 16.0 0.00 0.00 0.00 41 923.8
20260905191004 85 212 12.0 17.0 0.00 0.00 0.00 42 923.8
20260905190004 84 218 10.0 20.0 0.00 0.00 0.00 45 923.8
20260905185004 84 215 10.0 16.0 0.00 0.00 0.00 47 923.8
20260905184004 83 206 10.0 15.0 0.00 0.00 0.00 50 923.8
20260905183003 82 210 6.0 12.0 0.00 0.00 0.00 52 923.8
20260905181004 78 279 0.0 0.0 0.00 0.00 0.00 63 923.8
20260905180004 76 280 0.0 0.0 0.00 0.00 0.00 68 923.8
20260905175004 74 273 0.0 0.0 0.00 0.00 0.00 73 923.8
20260905174004 70 18 0.0 0.0 0.00 0.00 0.00 75 923.8
20260905173004 67 309 0.0 0.0 0.00 0.00 0.00 66 923.8
20260905172004 66 181 0.0 0.0 0.00 0.00 0.00 44 923.8
20260905171004 64 48 0.0 0.0 0.00 0.00 0.00 33 923.8
20260905170004 63 51 0.0 0.0 0.00 0.00 0.00 29 923.8
20260905164004 61 342 0.0 0.0 0.00 0.00 0.00 34 923.8
20260905163004 60 342 0.0 0.0 0.00 0.00 0.00 33 923.8
20260905162004 59 342 0.0 0.0 0.00 0.00 0.00 36 923.8
20260905161004 58 343 0.0 0.0 0.00 0.00 0.00 39 923.8
20260905160004 58 343 0.0 0.0 0.00 0.00 0.00 41 923.8
20260905155005 58 289 0.0 0.0 0.00 0.00 0.00 42 923.8
20260905154004 57 289 0.0 0.0 0.00 0.00 0.00 42 923.8
20260905153004 57 289 0.0 0.0 0.00 0.00 0.00 44 923.8
20260905152003 57 289 0.0 0.0 0.00 0.00 0.00 46 923.8
20260905151003 56 289 0.0 0.0 0.00 0.00 0.00 47 923.8
20260905150003 56 289 0.0 0.0 0.00 0.00 0.00 47 923.8
20260905145003 56 289 0.0 0.0 0.00 0.00 0.00 49 923.8
20260905144003 56 289 0.0 0.0 0.00 0.00 0.00 50 923.8
20260905143004 56 289 0.0 0.0 0.00 0.00 0.00 50 923.8
20260905142004 56 289 0.0 0.0 0.00 0.00 0.00 51 923.8
20260905141004 56 288 0.0 0.0 0.00 0.00 0.00 52 923.8
20260905140004 56 288 0.0 0.0 0.00 0.00 0.00 52 923.8
20260905135004 56 288 0.0 0.0 0.00 0.00 0.00 53 923.8
20260905134004 56 288 0.0 0.0 0.00 0.00 0.00 53 923.8